Moab, UT

7:51 AM MDT on October 23, 2019 (GMT -0600)
Canyonlands

Weather History for KCNY - August, 2019

Change the Weather History Date:

Wednesday, August 21, 2019

  Actual Average Record
Temperature  
Mean Temperature 80 °F 76 °F  
Max Temperature 101 °F 91 °F 104 °F (1991)
Min Temperature 59 °F 61 °F 44 °F (1930)
Degree Days  
Heating Degree Days 0 0  
Month to date heating degree days 0 0  
Since 1 June heating degree days 23 17  
Since 1 July heating degree days 0 0  
Cooling Degree Days 15 11  
Month to date cooling degree days 331 279  
Year to date cooling degree days 1104 1072  
Since 1 June cooling degree days 1089 1008  
Growing Degree Days 32 (Base 50)    
Moisture  
Dew Point 22 °F    
Average Humidity 12    
Maximum Humidity 18    
Minimum Humidity 6    
Precipitation  
Precipitation 0.00 in 0.03 in 0.98 in (1947)
Month to date precipitation 0.02 0.56  
Year to date precipitation 6.17 5.10  
Sea Level Pressure  
Sea Level Pressure 29.78 in    
Wind  
Wind Speed 5 mph (SSW)    
Max Wind Speed 17 mph    
Max Gust Speed 27 mph    
Visibility 10 miles    
Events      
T = Trace of Precipitation, MM = Missing Value Source: NWS Daily Summary

Daily Weather History Graph

Daily Weather History Graph

Search for Another Location

Airport or City:

Astronomy

Aug. 21, 2019 Rise Set
Actual Time 6:38 AM MDT 8:05 PM MDT
Civil Twilight 6:10 AM MDT 8:33 PM MDT
Nautical Twilight 5:36 AM MDT 9:06 PM MDT
Astronomical Twilight 5:01 AM MDT 9:42 PM MDT
Moon 11:28 PM MDT (8/21) 12:13 PM MDT (8/21)
Length of Visible Light 14h 23m
Length of Day
13h 27m
Waning Gibbous, 68% of the Moon is Illuminated
Aug 21
Waning Gibbous
Aug 23
Last Quarter
Aug 30
New
Sep 5
First Quarter
Sep 13
Full

Hourly Weather History & Observations

Time (MDT) Temp. Dew Point Humidity Pressure Visibility Wind Dir Wind Speed Gust Speed Precip Events Conditions
12:53 AM 71.1 °F 19.0 °F 14% 29.81 in 10.0 mi Calm Calm - N/A   Clear
1:53 AM 64.0 °F 17.1 °F 16% 29.82 in 10.0 mi WSW 4.6 mph - N/A   Clear
2:53 AM 64.0 °F 19.9 °F 18% 29.82 in 10.0 mi Calm Calm - N/A   Clear
3:53 AM 66.9 °F 19.9 °F 17% 29.81 in 10.0 mi East 3.5 mph - N/A   Clear
4:53 AM 66.0 °F 21.0 °F 18% 29.82 in 10.0 mi Calm Calm - N/A   Clear
5:53 AM 66.0 °F 21.9 °F 19% 29.84 in 10.0 mi Calm Calm - N/A   Clear
6:53 AM 68.0 °F 21.0 °F 17% 29.85 in 10.0 mi Calm Calm - N/A   Clear
7:53 AM 71.1 °F 21.9 °F 16% 29.86 in 10.0 mi South 3.5 mph - N/A   Clear
8:53 AM 78.1 °F 26.1 °F 15% 29.87 in 10.0 mi SE 5.8 mph - N/A   Clear
9:53 AM 84.0 °F 30.0 °F 14% 29.87 in 10.0 mi East 5.8 mph - N/A   Clear
10:53 AM 87.1 °F 30.9 °F 13% 29.86 in 10.0 mi SE 6.9 mph - N/A   Clear
11:53 AM 91.9 °F 28.0 °F 10% 29.86 in 10.0 mi East 8.1 mph - N/A   Clear
12:53 PM 91.9 °F 27.0 °F 10% 29.83 in 10.0 mi Calm Calm - N/A   Clear
1:53 PM 97.0 °F 26.1 °F 8% 29.80 in 10.0 mi WNW 8.1 mph - N/A   Clear
2:53 PM 99.0 °F 24.1 °F 7% 29.76 in 10.0 mi North - - N/A   Clear
3:53 PM 99.0 °F 19.9 °F 6% 29.73 in 10.0 mi West 12.7 mph 26.5 mph N/A   Clear
4:53 PM 99.0 °F 19.9 °F 6% 29.70 in 10.0 mi North - - N/A   Clear
5:53 PM 99.0 °F 21.0 °F 6% 29.68 in 10.0 mi West 13.8 mph - N/A   Clear
6:53 PM 97.0 °F 21.0 °F 6% 29.66 in 10.0 mi West 10.4 mph - N/A   Clear
7:53 PM 91.0 °F 19.9 °F 7% 29.67 in 10.0 mi NW 8.1 mph - N/A   Clear
8:53 PM 87.1 °F 19.9 °F 8% 29.68 in 10.0 mi West 4.6 mph - N/A   Clear
9:53 PM 79.0 °F 21.9 °F 12% 29.69 in 10.0 mi SW 3.5 mph - N/A   Clear
10:53 PM 79.0 °F 21.9 °F 12% 29.68 in 10.0 mi Calm Calm - N/A   Clear
11:53 PM 73.9 °F 19.0 °F 13% 29.69 in 10.0 mi ESE 5.8 mph - N/A   Clear